| time (UTC) | temp C | wind direction | speed KPH | gust KPH | rain 1hr cm | rain 24hr cm | rain mn cm | humidity % | barometer mb |
| 20260507074544 | 14 | 120 | 0.0 | 4.8 | 0.00 | 0.00 | 0.00 | 78 | 1012.8 |
| 20260507073039 | 15 | 120 | 1.6 | 3.2 | 0.00 | 0.00 | 0.00 | 76 | 1012.9 |
| 20260507071553 | 15 | 79 | 0.0 | 4.8 | 0.00 | 0.00 | 0.00 | 76 | 1012.7 |
| 20260507070036 | 14 | 58 | 0.0 | 0.0 | 0.00 | 0.00 | 0.00 | 82 | 1012.7 |
| 20260507064530 | 12 | 336 | 0.0 | 1.6 | 0.00 | 0.30 | 0.00 | 83 | 1012.6 |
| 20260507063032 | 12 | 313 | 0.0 | 1.6 | 0.00 | 0.30 | 0.00 | 84 | 1012.5 |
| 20260507061528 | 12 | 323 | 0.0 | 3.2 | 0.00 | 0.30 | 0.00 | 82 | 1012.4 |
| 20260507060026 | 12 | 281 | 0.0 | 3.2 | 0.00 | 0.30 | 0.00 | 83 | 1012.3 |
| 20260507054523 | 11 | 314 | 0.0 | 1.6 | 0.00 | 0.43 | 0.00 | 86 | 1012.2 |
| 20260507053024 | 10 | 340 | 0.0 | 4.8 | 0.00 | 0.43 | 0.00 | 88 | 1012.1 |
| 20260507051520 | 10 | 290 | 0.0 | 6.4 | 0.00 | 0.43 | 0.00 | 90 | 1011.9 |
| 20260507050019 | 9 | 319 | 0.0 | 4.8 | 0.00 | 0.64 | 0.00 | 92 | 1011.8 |
| 20260507044516 | 8 | 307 | 0.0 | 1.6 | 0.00 | 0.64 | 0.00 | 94 | 1011.4 |
| 20260507043014 | 8 | 292 | 0.0 | 4.8 | 0.00 | 0.64 | 0.00 | 94 | 1011.3 |
| 20260507041512 | 8 | 296 | 0.0 | 1.6 | 0.00 | 0.64 | 0.00 | 95 | 1011.1 |
| 20260507040013 | 8 | 314 | 0.0 | 0.0 | 0.00 | 0.71 | 0.00 | 94 | 1011.0 |
| 20260507034507 | 8 | 314 | 0.0 | 0.0 | 0.00 | 0.71 | 0.00 | 94 | 1010.9 |
| 20260507033007 | 8 | 314 | 0.0 | 0.0 | 0.00 | 0.71 | 0.00 | 94 | 1010.7 |
| 20260507031505 | 9 | 312 | 0.0 | 1.6 | 0.00 | 0.71 | 0.00 | 93 | 1010.8 |
| 20260507030005 | 9 | 322 | 0.0 | 4.8 | 0.00 | 0.71 | 0.00 | 93 | 1010.8 |
| 20260507024502 | 9 | 312 | 0.0 | 3.2 | 0.00 | 0.71 | 0.00 | 92 | 1010.8 |
| 20260507023103 | 10 | 323 | 0.0 | 3.2 | 0.00 | 0.71 | 0.00 | 92 | 1010.9 |
| 20260507021602 | 10 | 320 | 0.0 | 3.2 | 0.00 | 0.71 | 0.00 | 92 | 1010.8 |
| 20260507020104 | 10 | 308 | 0.0 | 1.6 | 0.00 | 0.71 | 0.00 | 91 | 1010.8 |
| 20260507014607 | 10 | 300 | 0.0 | 1.6 | 0.00 | 0.71 | 0.00 | 90 | 1010.8 |
| 20260507013057 | 10 | 325 | 0.0 | 1.6 | 0.00 | 0.71 | 0.00 | 90 | 1010.8 |
| 20260507011603 | 10 | 331 | 0.0 | 3.2 | 0.00 | 0.71 | 0.00 | 91 | 1010.8 |
| 20260507010056 | 10 | 311 | 0.0 | 4.8 | 0.00 | 0.71 | 0.00 | 90 | 1010.7 |
| 20260507004552 | 10 | 319 | 1.6 | 4.8 | 0.00 | 0.94 | 0.00 | 90 | 1010.7 |
| 20260507003052 | 10 | 304 | 0.0 | 3.2 | 0.00 | 0.94 | 0.00 | 92 | 1010.6 |
| 20260507001606 | 10 | 335 | 0.0 | 1.6 | 0.00 | 0.94 | 0.00 | 92 | 1010.3 |
| 20260507000057 | 10 | 311 | 0.0 | 1.6 | 0.00 | 0.94 | 0.00 | 91 | 1010.4 |
| 20260506234548 | 10 | 288 | 0.0 | 1.6 | 0.00 | 0.94 | 0.00 | 91 | 1010.3 |
| 20260506233046 | 10 | 299 | 0.0 | 1.6 | 0.00 | 0.94 | 0.00 | 91 | 1010.3 |
| 20260506231545 | 10 | 287 | 0.0 | 1.6 | 0.00 | 0.94 | 0.00 | 91 | 1010.2 |
| 20260506230048 | 10 | 338 | 0.0 | 3.2 | 0.00 | 0.94 | 0.00 | 91 | 1010.2 |
| 20260506224542 | 11 | 305 | 0.0 | 1.6 | 0.00 | 0.94 | 0.00 | 91 | 1010.2 |
| 20260506223039 | 11 | 307 | 0.0 | 1.6 | 0.00 | 0.94 | 0.00 | 89 | 1010.2 |
| 20260506221537 | 11 | 285 | 0.0 | 3.2 | 0.00 | 0.94 | 0.00 | 88 | 1010.1 |
| 20260506220033 | 12 | 316 | 0.0 | 6.4 | 0.00 | 0.94 | 0.00 | 88 | 1010.1 |
| 20260506214532 | 11 | 10 | 0.0 | 4.8 | 0.00 | 0.94 | 0.94 | 90 | 1009.9 |
| 20260506213033 | 12 | 310 | 0.0 | 1.6 | 0.00 | 0.94 | 0.94 | 89 | 1010.1 |
| 20260506211536 | 12 | 328 | 0.0 | 1.6 | 0.00 | 0.94 | 0.94 | 87 | 1009.9 |
| 20260506210031 | 12 | 343 | 0.0 | 3.2 | 0.00 | 0.94 | 0.94 | 88 | 1010.0 |
| 20260506204534 | 13 | 27 | 0.0 | 1.6 | 0.00 | 0.94 | 0.94 | 86 | 1009.8 |
| 20260506203039 | 13 | 11 | 0.0 | 3.2 | 0.00 | 0.94 | 0.94 | 86 | 1009.6 |
| 20260506201529 | 13 | 56 | 0.0 | 1.6 | 0.00 | 0.94 | 0.94 | 86 | 1009.1 |
| 20260506200038 | 13 | 301 | 0.0 | 1.6 | 0.00 | 0.94 | 0.94 | 85 | 1009.0 |
| 20260506194528 | 13 | 267 | 0.0 | 9.7 | 0.00 | 0.94 | 0.94 | 85 | 1008.5 |
| 20260506193026 | 13 | 327 | 1.6 | 8.0 | 0.00 | 0.94 | 0.94 | 85 | 1008.1 |
| 20260506191527 | 14 | 67 | 4.8 | 11.3 | 0.00 | 0.94 | 0.94 | 86 | 1007.9 |
| 20260506190034 | 14 | 37 | 1.6 | 11.3 | 0.00 | 0.94 | 0.94 | 85 | 1007.8 |
| 20260506184525 | 15 | 39 | 1.6 | 12.9 | 0.00 | 0.94 | 0.94 | 83 | 1007.4 |
| 20260506183025 | 15 | 72 | 3.2 | 17.7 | 0.00 | 0.94 | 0.94 | 81 | 1006.8 |
| 20260506181526 | 16 | 55 | 3.2 | 11.3 | 0.00 | 0.94 | 0.94 | 77 | 1006.4 |
| 20260506180025 | 16 | 43 | 6.4 | 12.9 | 0.00 | 0.94 | 0.94 | 74 | 1006.3 |
| 20260506174523 | 16 | 357 | 1.6 | 6.4 | 0.00 | 0.94 | 0.94 | 69 | 1006.0 |
| 20260506173022 | 16 | 296 | 1.6 | 6.4 | 0.00 | 0.94 | 0.94 | 68 | 1005.9 |
| 20260506171523 | 17 | 39 | 1.6 | 6.4 | 0.00 | 0.94 | 0.94 | 68 | 1005.7 |
| 20260506170022 | 17 | 43 | 3.2 | 11.3 | 0.00 | 0.94 | 0.94 | 69 | 1005.4 |
| 20260506164520 | 18 | 330 | 1.6 | 12.9 | 0.00 | 0.94 | 0.94 | 70 | 1005.3 |
| 20260506163037 | 19 | 32 | 0.0 | 6.4 | 0.00 | 0.94 | 0.94 | 71 | 1005.3 |
| 20260506161521 | 18 | 50 | 3.2 | 12.9 | 0.00 | 0.94 | 0.94 | 73 | 1005.2 |
| 20260506160019 | 17 | 344 | 3.2 | 9.7 | 0.00 | 0.94 | 0.94 | 72 | 1005.2 |
| 20260506154529 | 18 | 349 | 3.2 | 11.3 | 0.00 | 0.94 | 0.94 | 70 | 1005.2 |
| 20260506153016 | 19 | 331 | 4.8 | 9.7 | 0.00 | 0.94 | 0.94 | 68 | 1005.2 |
| 20260506151514 | 19 | 343 | 3.2 | 17.7 | 0.00 | 0.94 | 0.94 | 67 | 1005.3 |
| 20260506150114 | 20 | 8 | 3.2 | 14.5 | 0.00 | 0.94 | 0.94 | 67 | 1005.3 |
| 20260506144512 | 20 | 314 | 3.2 | 11.3 | 0.00 | 0.94 | 0.94 | 68 | 1005.4 |
| 20260506143014 | 20 | 59 | 1.6 | 8.0 | 0.00 | 0.94 | 0.94 | 67 | 1005.4 |
| 20260506141509 | 19 | 77 | 3.2 | 9.7 | 0.00 | 0.94 | 0.94 | 69 | 1005.4 |
| 20260506140017 | 19 | 356 | 3.2 | 6.4 | 0.00 | 0.94 | 0.94 | 65 | 1005.5 |
| 20260506134506 | 19 | 317 | 1.6 | 4.8 | 0.00 | 0.94 | 0.94 | 62 | 1005.8 |
| 20260506133003 | 20 | 88 | 0.0 | 9.7 | 0.00 | 0.94 | 0.94 | 61 | 1005.8 |
| 20260506131502 | 20 | 133 | 1.6 | 8.0 | 0.00 | 0.94 | 0.94 | 63 | 1005.8 |
| 20260506130100 | 19 | 100 | 4.8 | 9.7 | 0.00 | 0.94 | 0.94 | 66 | 1005.9 |
| 20260506124601 | 19 | 69 | 3.2 | 8.0 | 0.00 | 0.94 | 0.94 | 68 | 1006.0 |
| 20260506123111 | 18 | 29 | 1.6 | 8.0 | 0.00 | 0.94 | 0.94 | 68 | 1005.9 |
| 20260506121608 | 17 | 153 | 4.8 | 9.7 | 0.00 | 0.94 | 0.94 | 71 | 1005.8 |
| 20260506120051 | 17 | 65 | 4.8 | 9.7 | 0.00 | 0.94 | 0.94 | 71 | 1006.0 |
| 20260506114549 | 17 | 214 | 1.6 | 9.7 | 0.00 | 0.94 | 0.94 | 74 | 1006.0 |
| 20260506113048 | 16 | 101 | 4.8 | 9.7 | 0.00 | 0.94 | 0.94 | 74 | 1006.1 |
| 20260506111547 | 16 | 83 | 3.2 | 11.3 | 0.00 | 0.94 | 0.94 | 73 | 1006.1 |
| 20260506110045 | 17 | 77 | 1.6 | 9.7 | 0.00 | 0.94 | 0.94 | 72 | 1006.2 |
| 20260506104546 | 16 | 284 | 3.2 | 9.7 | 0.00 | 0.99 | 0.94 | 77 | 1006.5 |
| 20260506103040 | 16 | 94 | 3.2 | 9.7 | 0.00 | 0.99 | 0.94 | 80 | 1006.6 |
| 20260506101539 | 16 | 102 | 0.0 | 6.4 | 0.00 | 0.99 | 0.94 | 80 | 1006.7 |
| 20260506100038 | 16 | 138 | 4.8 | 9.7 | 0.00 | 0.99 | 0.94 | 80 | 1006.7 |
| 20260506094535 | 16 | 81 | 1.6 | 8.0 | 0.00 | 1.02 | 0.94 | 82 | 1006.8 |
| 20260506093033 | 16 | 135 | 0.0 | 6.4 | 0.00 | 1.02 | 0.94 | 83 | 1006.9 |
| 20260506091529 | 14 | 353 | 1.6 | 6.4 | 0.00 | 1.02 | 0.94 | 85 | 1007.1 |
| 20260506090026 | 14 | 117 | 0.0 | 4.8 | 0.00 | 1.02 | 0.94 | 90 | 1007.2 |
| 20260506084533 | 13 | 78 | 1.6 | 4.8 | 0.00 | 1.07 | 0.94 | 95 | 1007.2 |
| 20260506083024 | 12 | 72 | 0.0 | 4.8 | 0.00 | 1.07 | 0.94 | 95 | 1007.3 |
| 20260506081518 | 12 | 295 | 0.0 | 3.2 | 0.00 | 1.07 | 0.94 | 95 | 1007.3 |